CW7104 Weather Reports


time (UTC)temp
C
wind
direction
speed
KPH
gust
KPH
rain 1hr
cm
rain 24hr
cm
rain mn
cm
humidity
%
barometer
mb
20260508225405 23 196 0.0 1.6 0.00 0.00 0.00 40 1009.8
20260508224904 23 245 0.0 1.6 0.00 0.00 0.00 40 1009.9
20260508223404 23 189 0.0 1.6 0.00 0.00 0.00 40 1009.7
20260508222405 23 194 0.0 1.6 0.00 0.00 0.00 40 1009.8
20260508221905 23 220 1.6 11.3 0.00 0.00 0.00 39 1009.7
20260508220904 24 229 0.0 1.6 0.00 0.00 0.00 40 1009.7
20260508215905 24 194 4.8 22.5 0.00 0.00 0.00 39 1009.6
20260508215404 25 167 8.0 20.9 0.00 0.00 0.00 40 1009.5
20260508214405 25 156 0.0 20.9 0.00 0.00 0.00 38 1009.5
20260508213905 25 228 0.0 3.2 0.00 0.00 0.00 38 1009.6
20260508213405 25 301 1.6 19.3 0.00 0.00 0.00 40 1009.7
20260508212904 25 196 0.0 3.2 0.00 0.00 0.00 39 1009.6
20260508212405 25 251 0.0 3.2 0.00 0.00 0.00 39 1009.6
20260508211405 25 171 4.8 24.1 0.00 0.00 0.00 39 1009.8
20260508210904 25 165 8.0 16.1 0.00 0.00 0.00 38 1009.8
20260508205905 25 201 4.8 19.3 0.00 0.00 0.00 39 1009.9
20260508205405 25 183 4.8 20.9 0.00 0.00 0.00 39 1010.0
20260508204904 25 151 6.4 19.3 0.00 0.00 0.00 39 1010.1
20260508204404 25 238 3.2 29.0 0.00 0.00 0.00 39 1010.1
20260508203905 25 336 1.6 19.3 0.00 0.00 0.00 40 1010.1
20260508203405 25 152 4.8 20.9 0.00 0.00 0.00 40 1010.3
20260508202904 25 296 4.8 20.9 0.00 0.00 0.00 40 1010.3
20260508201905 24 223 1.6 29.0 0.00 0.00 0.00 42 1010.5
20260508201404 24 165 8.0 25.7 0.00 0.00 0.00 41 1010.5
20260508200904 24 181 0.0 3.2 0.00 0.00 0.00 40 1010.7
20260508200404 24 209 1.6 19.3 0.00 0.00 0.00 42 1010.8
20260508195905 24 210 11.3 20.9 0.00 0.00 0.00 41 1010.9
20260508195404 24 324 6.4 20.9 0.00 0.00 0.00 42 1011.0
20260508194904 24 136 9.7 19.3 0.00 0.00 0.00 42 1011.0
20260508194404 24 197 8.0 19.3 0.00 0.00 0.00 41 1011.1
20260508193404 24 175 6.4 19.3 0.00 0.00 0.00 41 1011.2
20260508192904 24 196 0.0 8.0 0.00 0.00 0.00 42 1011.3
20260508191905 23 188 0.0 1.6 0.00 0.00 0.00 46 1011.4
20260508191404 23 150 0.0 22.5 0.00 0.00 0.00 44 1011.6
20260508190904 23 328 11.3 19.3 0.00 0.00 0.00 42 1011.6
20260508190405 23 198 1.6 12.9 0.00 0.00 0.00 43 1011.7
20260508185404 23 152 8.0 19.3 0.00 0.00 0.00 44 1012.0
20260508184904 23 187 4.8 20.9 0.00 0.00 0.00 43 1012.2
20260508183404 23 208 4.8 14.5 0.00 0.00 0.00 44 1012.3
20260508182904 23 331 3.2 19.3 0.00 0.00 0.00 46 1012.4
20260508182405 23 186 4.8 12.9 0.00 0.00 0.00 45 1012.5
20260508181904 22 205 1.6 16.1 0.00 0.00 0.00 47 1012.6
20260508181404 22 330 8.0 24.1 0.00 0.00 0.00 44 1012.6
20260508180905 22 153 4.8 22.5 0.00 0.00 0.00 46 1012.9
20260508180404 22 305 0.0 19.3 0.00 0.00 0.00 45 1012.9
20260508175904 22 162 8.0 19.3 0.00 0.00 0.00 46 1012.9
20260508175405 22 236 6.4 19.3 0.00 0.00 0.00 46 1013.0
20260508174904 22 258 8.0 24.1 0.00 0.00 0.00 45 1013.0
20260508174404 22 273 1.6 16.1 0.00 0.00 0.00 45 1013.2
20260508173904 22 310 11.3 20.9 0.00 0.00 0.00 44 1013.3
20260508173404 22 272 8.0 19.3 0.00 0.00 0.00 46 1013.2
20260508172404 22 183 0.0 14.5 0.00 0.00 0.00 47 1013.2
20260508171904 22 165 8.0 19.3 0.00 0.00 0.00 47 1013.4
20260508170904 21 168 0.0 19.3 0.00 0.00 0.00 49 1013.6
20260508165904 21 154 11.3 16.1 0.00 0.00 0.00 48 1013.7
20260508165404 21 150 9.7 29.0 0.00 0.00 0.00 47 1013.7
20260508164904 21 179 9.7 16.1 0.00 0.00 0.00 49 1013.8
20260508164404 21 166 9.7 19.3 0.00 0.00 0.00 48 1013.7
20260508163904 21 167 9.7 19.3 0.00 0.00 0.00 48 1013.8
20260508163404 21 185 8.0 29.0 0.00 0.00 0.00 48 1013.9
20260508162904 21 326 8.0 19.3 0.00 0.00 0.00 48 1013.8
20260508162404 21 188 4.8 12.9 0.00 0.00 0.00 50 1013.9
20260508161904 21 167 8.0 19.3 0.00 0.00 0.00 50 1013.9
20260508161404 21 249 8.0 20.9 0.00 0.00 0.00 49 1013.9
20260508160404 21 190 11.3 22.5 0.00 0.00 0.00 48 1014.3
20260508155904 21 271 0.0 11.3 0.00 0.00 0.00 51 1014.4
20260508154904 20 153 4.8 16.1 0.00 0.00 0.00 52 1014.7
20260508154404 20 173 4.8 16.1 0.00 0.00 0.00 51 1014.7
20260508153404 20 165 6.4 16.1 0.00 0.00 0.00 50 1014.9
20260508152404 20 175 6.4 16.1 0.00 0.00 0.00 51 1014.9
20260508151904 19 137 3.2 12.9 0.00 0.00 0.00 52 1015.0
20260508151404 19 132 4.8 19.3 0.00 0.00 0.00 52 1015.1
20260508150904 19 287 8.0 14.5 0.00 0.00 0.00 52 1015.1
20260508150404 18 184 4.8 19.3 0.00 0.00 0.00 52 1015.3
20260508145904 18 174 9.7 22.5 0.00 0.00 0.00 52 1015.4
20260508145404 18 146 6.4 16.1 0.00 0.00 0.00 52 1015.4
20260508144904 18 190 3.2 19.3 0.00 0.00 0.00 53 1015.5
20260508144404 18 165 6.4 14.5 0.00 0.00 0.00 54 1015.6
20260508143903 17 175 0.0 16.1 0.00 0.00 0.00 54 1015.6
20260508143403 17 200 6.4 20.9 0.00 0.00 0.00 54 1015.7
20260508142904 17 205 8.0 16.1 0.00 0.00 0.00 53 1015.7
20260508142403 17 168 9.7 24.1 0.00 0.00 0.00 54 1015.7
20260508141904 16 226 0.0 14.5 0.00 0.00 0.00 56 1015.8
20260508141404 16 220 9.7 19.3 0.00 0.00 0.00 57 1015.8
20260508140904 16 184 3.2 16.1 0.00 0.00 0.00 58 1015.8
20260508140403 15 162 8.0 19.3 0.00 0.00 0.00 57 1015.8
20260508135904 15 188 4.8 16.1 0.00 0.00 0.00 58 1015.9
20260508135404 15 159 4.8 12.9 0.00 0.00 0.00 59 1015.9
20260508134904 14 165 1.6 12.9 0.00 0.00 0.00 61 1016.0
20260508134404 14 197 3.2 11.3 0.00 0.00 0.00 61 1015.9
20260508133904 13 283 3.2 16.1 0.00 0.00 0.00 62 1015.9
20260508133404 13 175 1.6 12.9 0.00 0.00 0.00 63 1015.9
20260508132904 13 163 0.0 0.0 0.00 0.00 0.00 64 1015.9
20260508131905 12 142 0.0 0.0 0.00 0.00 0.00 67 1016.0
20260508131404 12 157 0.0 0.0 0.00 0.00 0.00 69 1015.9
20260508130404 11 149 0.0 0.0 0.00 0.00 0.00 72 1015.7
20260508125404 11 152 0.0 0.0 0.00 0.00 0.00 71 1015.7
20260508124904 11 152 0.0 0.0 0.00 0.00 0.00 72 1015.7
20260508123904 10 148 0.0 0.0 0.00 0.00 0.00 72 1015.7
20260508123404 10 147 0.0 0.0 0.00 0.00 0.00 73 1015.7
20260508122905 10 141 0.0 0.0 0.00 0.00 0.00 73 1015.7
20260508122405 10 146 0.0 0.0 0.00 0.00 0.00 74 1015.7
20260508121903 9 141 0.0 0.0 0.00 0.00 0.00 74 1015.7
20260508120903 8 146 0.0 0.0 0.00 0.00 0.00 75 1015.5
20260508120404 8 146 0.0 0.0 0.00 0.00 0.00 75 1015.5
20260508114904 8 159 0.0 0.0 0.00 0.00 0.00 76 1015.5
20260508114403 8 159 0.0 0.0 0.00 0.00 0.00 76 1015.5
20260508113904 8 159 0.0 0.0 0.00 0.00 0.00 76 1015.5
20260508113404 8 159 0.0 0.0 0.00 0.00 0.00 76 1015.5
20260508112904 7 159 0.0 0.0 0.00 0.00 0.00 76 1015.5
20260508112404 7 159 0.0 0.0 0.00 0.00 0.00 76 1015.5
20260508111903 7 161 0.0 0.0 0.00 0.00 0.00 76 1015.5
20260508111404 7 161 0.0 0.0 0.00 0.00 0.00 76 1015.3
20260508110903 7 161 0.0 0.0 0.00 0.00 0.00 76 1015.2
20260508110404 7 161 0.0 0.0 0.00 0.00 0.00 76 1015.1
20260508105904 7 161 0.0 0.0 0.00 0.00 0.00 76 1015.1
20260508105403 7 161 0.0 0.0 0.00 0.00 0.00 76 1015.1
20260508104904 7 161 0.0 0.0 0.00 0.00 0.00 76 1015.2
20260508104403 7 161 0.0 0.0 0.00 0.00 0.00 76 1015.1
20260508103904 7 161 0.0 0.0 0.00 0.00 0.00 76 1015.0
20260508103404 7 161 0.0 0.0 0.00 0.00 0.00 76 1015.0
20260508102904 7 161 0.0 0.0 0.00 0.00 0.00 76 1015.0
20260508101903 7 169 0.0 0.0 0.00 0.00 0.00 76 1015.0
20260508101403 7 169 0.0 0.0 0.00 0.00 0.00 75 1015.1
20260508100904 7 169 0.0 0.0 0.00 0.00 0.00 75 1015.1
20260508100404 7 169 0.0 0.0 0.00 0.00 0.00 75 1015.1
20260508095903 7 169 0.0 0.0 0.00 0.00 0.00 74 1015.1
20260508095404 7 169 0.0 0.0 0.00 0.00 0.00 74 1015.1
20260508094903 7 169 0.0 0.0 0.00 0.00 0.00 74 1015.1
20260508094404 7 169 0.0 0.0 0.00 0.00 0.00 73 1015.2
20260508093903 7 169 0.0 0.0 0.00 0.00 0.00 73 1015.1
20260508092904 7 169 0.0 0.0 0.00 0.00 0.00 73 1015.2
20260508091904 7 169 0.0 0.0 0.00 0.00 0.00 73 1015.2
20260508091403 7 169 0.0 0.0 0.00 0.00 0.00 73 1015.2
20260508090405 7 169 0.0 0.0 0.00 0.00 0.00 73 1015.1
20260508085905 7 169 0.0 0.0 0.00 0.00 0.00 73 1015.2
20260508085405 7 169 0.0 0.0 0.00 0.00 0.00 73 1015.1
20260508084406 7 169 0.0 0.0 0.00 0.00 0.00 72 1015.2
20260508083405 7 169 0.0 0.0 0.00 0.00 0.00 72 1015.2
20260508082905 7 170 0.0 0.0 0.00 0.00 0.00 72 1015.3
20260508081905 7 170 0.0 0.0 0.00 0.00 0.00 71 1015.4
20260508080905 8 169 0.0 0.0 0.00 0.00 0.00 71 1015.5
20260508080405 8 169 0.0 0.0 0.00 0.00 0.00 70 1015.5
20260508074905 8 169 0.0 0.0 0.00 0.00 0.00 70 1015.7
20260508074405 8 169 0.0 0.0 0.00 0.00 0.00 70 1015.7
20260508073905 8 169 0.0 0.0 0.00 0.00 0.00 70 1015.7
20260508072905 8 170 0.0 0.0 0.00 0.00 0.00 69 1015.8
20260508072405 8 170 0.0 0.0 0.00 0.00 0.00 70 1015.7
20260508071905 8 177 0.0 0.0 0.00 0.00 0.00 70 1015.8
20260508070905 8 177 0.0 0.0 0.00 0.00 0.00 71 1015.9
20260508070405 8 177 0.0 0.0 0.00 0.00 0.00 71 1015.9
20260508065905 8 177 0.0 0.0 0.00 0.00 0.00 72 1016.0
20260508064405 7 204 0.0 0.0 0.00 0.00 0.00 72 1015.8
20260508063906 7 204 0.0 0.0 0.00 0.00 0.00 72 1016.0
20260508062905 8 204 0.0 0.0 0.00 0.00 0.00 71 1016.0
20260508062405 8 204 0.0 0.0 0.00 0.00 0.00 70 1016.0
20260508061405 8 204 0.0 0.0 0.00 0.00 0.00 69 1016.1
20260508060906 8 204 0.0 0.0 0.00 0.00 0.00 69 1016.1
20260508060405 8 204 0.0 0.0 0.00 0.00 0.00 69 1016.2
20260508055905 8 204 0.0 0.0 0.00 0.00 0.00 69 1016.2
20260508055406 8 204 0.0 0.0 0.00 0.00 0.00 68 1016.2
20260508054905 8 204 0.0 0.0 0.00 0.00 0.00 68 1016.2
20260508054405 8 204 0.0 0.0 0.00 0.00 0.00 67 1016.2
20260508053905 8 203 0.0 0.0 0.00 0.00 0.00 67 1016.3
20260508053405 8 204 0.0 0.0 0.00 0.00 0.00 66 1016.2
20260508052905 8 204 0.0 0.0 0.00 0.00 0.00 66 1016.2
20260508052405 8 204 0.0 0.0 0.00 0.00 0.00 65 1016.3
20260508051905 9 204 0.0 0.0 0.00 0.00 0.00 65 1016.4
20260508051405 9 204 0.0 0.0 0.00 0.00 0.00 65 1016.3
20260508050905 9 204 0.0 0.0 0.00 0.00 0.00 64 1016.4
20260508050405 9 204 0.0 0.0 0.00 0.00 0.00 64 1016.4
20260508045905 9 204 0.0 0.0 0.00 0.00 0.00 64 1016.4
20260508044905 9 204 0.0 0.0 0.00 0.00 0.00 64 1016.4
20260508044405 9 204 0.0 0.0 0.00 0.00 0.00 63 1016.4
20260508043905 9 204 0.0 0.0 0.00 0.00 0.00 63 1016.5
20260508043405 9 204 0.0 0.0 0.00 0.00 0.00 63 1016.5
20260508042905 9 204 0.0 0.0 0.00 0.00 0.00 63 1016.5
20260508042405 9 205 0.0 0.0 0.00 0.00 0.00 63 1016.4
20260508041405 10 206 0.0 0.0 0.00 0.00 0.00 62 1016.3
20260508040905 10 206 0.0 0.0 0.00 0.00 0.00 62 1016.3
20260508040406 10 206 0.0 0.0 0.00 0.00 0.00 62 1016.3
20260508034405 10 206 0.0 0.0 0.00 0.00 0.00 60 1016.1
20260508033405 10 206 0.0 0.0 0.00 0.00 0.00 60 1016.1
20260508032905 10 206 0.0 0.0 0.00 0.00 0.00 60 1016.1
20260508032405 10 206 0.0 0.0 0.00 0.00 0.00 60 1016.1
20260508031905 10 206 0.0 0.0 0.00 0.00 0.00 59 1016.0
20260508031405 11 206 0.0 0.0 0.00 0.00 0.00 59 1016.1
20260508030904 11 206 0.0 0.0 0.00 0.00 0.00 59 1016.1
20260508030405 11 206 0.0 0.0 0.00 0.00 0.00 58 1016.2
20260508025905 11 206 0.0 0.0 0.00 0.00 0.00 58 1016.1
20260508025405 11 206 0.0 0.0 0.00 0.00 0.00 58 1016.1
20260508024905 11 206 0.0 0.0 0.00 0.00 0.00 57 1016.1
20260508024405 11 206 0.0 0.0 0.00 0.00 0.00 56 1016.1
20260508023904 11 206 0.0 0.0 0.00 0.00 0.00 56 1016.0
20260508023405 11 206 0.0 0.0 0.00 0.00 0.00 55 1016.1
20260508022405 11 206 0.0 0.0 0.00 0.00 0.00 54 1016.0
20260508021905 11 206 0.0 0.0 0.00 0.00 0.00 53 1015.9
20260508020905 12 206 0.0 0.0 0.00 0.00 0.00 52 1015.9
20260508020404 12 206 0.0 0.0 0.00 0.00 0.00 51 1015.8
20260508015905 12 206 0.0 0.0 0.00 0.00 0.00 51 1015.7
20260508015405 12 206 0.0 0.0 0.00 0.00 0.00 50 1015.6
20260508014904 12 206 0.0 0.0 0.00 0.00 0.00 49 1015.6
20260508014405 12 206 0.0 0.0 0.00 0.00 0.00 49 1015.6
20260508013405 13 206 0.0 0.0 0.00 0.00 0.00 48 1015.4
20260508012905 13 206 0.0 0.0 0.00 0.00 0.00 47 1015.3
20260508012405 13 206 0.0 0.0 0.00 0.00 0.00 46 1015.2
20260508011905 13 206 0.0 0.0 0.00 0.00 0.00 45 1015.2
20260508010905 14 206 0.0 0.0 0.00 0.00 0.00 44 1015.3
20260508010405 15 206 0.0 0.0 0.00 0.00 0.00 42 1015.2
20260508005905 15 216 0.0 0.0 0.00 0.00 0.00 41 1015.3
20260508004905 15 216 0.0 0.0 0.00 0.00 0.00 39 1015.2
20260508004405 16 216 0.0 0.0 0.00 0.00 0.00 38 1015.1
20260508003904 16 216 0.0 0.0 0.00 0.00 0.00 37 1015.1
20260508002904 17 216 0.0 0.0 0.00 0.00 0.00 35 1015.0
20260508002405 17 216 0.0 0.0 0.00 0.00 0.00 35 1015.1
20260508001905 18 216 0.0 0.0 0.00 0.00 0.00 33 1015.1
20260508001404 18 217 0.0 0.0 0.00 0.00 0.00 33 1015.0
20260508000405 19 217 0.0 0.0 0.00 0.00 0.00 30 1015.2